Wind_Speed
6 7 7 6 7 7 8 8 8 9 8 9 9 10 9 10 11 11 11 11 12 12 13 13 14 14 15 15 16 16 17 17 16 15 16 15 15 15 16 15 16 16 16
7 8 8 8 8 9 9 9 10 10 10 10 10 10 10 11 12 12 13 13 13 14 14 14 15 15 15 15 16 16 16 16 17 16 16 16 16 15 15 15 16 15 15
9 9 9 10 10 11 11 11 12 12 12 12 12 12 13 13 13 14 14 14 15 15 15 15 15 15 15 15 16 16 15 15 16 16 16 16 16 16 16 16 16 16 16
10 10 10 10 11 11 12 12 13 14 14 14 14 14 15 14 14 15 15 15 15 15 15 15 16 15 15 15 15 15 15 15 16 16 16 17 18 18 17 17 17 17 17
10 11 11 11 12 12 12 13 14 14 15 15 15 16 16 16 15 15 15 15 15 15 15 15 15 15 15 15 15 15 16 16 16 16 16 17 17 18 17 17 17 18 18
11 12 11 12 13 13 13 14 15 15 15 15 16 16 16 16 16 16 16 15 15 15 15 15 15 15 15 15 15 15 16 16 17 16 16 17 17 18 18 19 19 18 18
13 13 13 13 13 14 15 15 15 16 16 16 16 16 16 16 16 16 16 16 16 16 16 16 15 16 16 16 16 16 16 16 16 16 17 17 17 18 18 19 19 19 19
14 14 14 14 14 15 15 15 15 15 15 16 16 16 16 16 16 16 16 16 16 16 17 17 16 16 16 16 16 16 17 16 16 16 16 17 17 18 18 18 19 19 19
15 15 15 15 15 15 15 15 15 15 15 15 15 15 16 16 16 16 17 17 17 17 17 17 17 17 17 16 17 17 17 17 17 17 17 18 18 18 18 18 19 20 20
15 15 15 15 15 15 15 15 15 15 15 15 15 16 16 16 17 17 17 17 18 18 18 18 17 18 17 18 18 17 17 17 18 18 18 19 19 19 19 19 20 20 20
15 15 15 15 16 16 16 16 16 15 15 15 15 16 16 16 17 17 17 17 18 18 18 18 18 19 18 18 18 18 18 18 19 19 19 20 20 19 20 19 19 20 20
16 16 16 16 16 16 16 16 16 16 16 16 16 16 16 17 17 17 18 18 18 19 19 20 20 20 19 19 19 19 19 19 20 20 20 20 19 19 19 19 19 19 20
16 16 16 17 17 17 16 16 16 16 16 16 16 16 17 17 17 17 18 18 18 18 19 20 20 20 20 20 20 20 20 20 20 21 21 20 20 20 20 20 20 20 20
15 16 16 17 17 16 16 16 16 16 16 16 16 16 17 17 18 18 18 18 19 19 19 20 20 20 20 20 20 20 21 21 21 21 21 21 21 21 21 21 20 20 20
15 15 16 15 16 16 15 16 16 17 17 17 17 17 17 18 18 19 19 20 20 20 20 20 20 20 21 21 20 21 21 21 21 21 20 21 22 22 22 21 21 20 20
16 16 16 16 16 16 16 17 17 17 17 18 18 19 19 19 20 20 20 20 21 20 20 20 21 21 21 22 22 22 22 22 22 22 21 22 22 22 23 22 22 21 21
17 16 16 17 17 17 17 18 18 18 18 19 19 20 20 21 21 20 20 20 21 21 21 21 22 21 22 22 22 22 23 23 24 24 24 23 23 23 23 23 23 23 22
17 17 17 18 18 18 18 18 19 19 20 20 21 21 21 21 21 21 21 21 21 22 22 22 22 23 23 23 23 22 23 23 24 24 24 24 24 24 23 23 23 23 23
18 18 18 18 19 19 19 19 20 20 21 22 22 22 22 22 22 22 22 22 22 22 22 23 23 23 23 23 23 23 24 23 24 25 24 24 24 24 24 24 23 23 24
20 20 20 20 20 20 20 20 21 22 22 23 23 22 22 22 22 23 23 23 23 22 23 23 23 24 24 24 24 24 25 25 25 25 25 25 25 25 25 25 24 24 24
21 21 21 21 21 21 21 21 22 23 23 24 24 24 24 23 23 23 23 23 24 24 24 24 24 24 24 24 24 25 25 25 25 26 27 27 27 26 26 26 26 26 25
23 23 23 22 22 22 23 23 24 24 24 24 24 24 24 24 24 24 24 24 24 24 24 24 24 24 24 24 24 24 25 25 25 26 26 27 27 27 27 27 27 27 27
25 24 24 23 23 23 24 24 25 25 24 24 24 24 24 24 24 24 25 25 25 25 24 25 25 24 24 25 25 25 26 26 26 26 26 27 27 27 28 28 28 28 28
25 25 25 24 24 24 24 24 25 25 25 25 24 24 24 24 24 24 24 25 25 25 25 26 26 26 26 26 26 26 26 26 26 26 27 27 27 28 29 29 30 30 30
26 26 26 25 25 25 25 25 26 25 25 25 25 25 25 25 25 25 25 25 25 26 26 27 27 27 27 27 27 27 26 26 26 27 27 28 28 28 29 30 30 31 31
27 27 27 26 26 26 26 26 27 26 26 25 25 25 25 26 26 26 26 26 26 27 27 27 27 28 28 28 28 28 27 27 27 27 28 29 29 29 29 30 31 31 32
Wind_Direction
286 282 286 286 285 286 286 285 284 282 282 283 282 282 278 276 277 274 271 272 276 277 279 277 275 273 272 272 272 269 269 268 268 266 264 267 265 263 265 264 265 266 270
285 283 281 280 283 283 282 283 284 283 283 284 283 282 282 280 280 280 277 278 281 283 282 281 276 273 273 274 272 270 267 265 264 265 266 267 267 265 266 267 267 268 271
286 285 283 282 282 283 282 280 281 282 282 281 280 279 279 278 279 280 279 280 281 282 284 283 281 279 280 278 276 272 269 268 263 261 263 266 266 266 267 268 269 271 273
287 286 285 285 284 284 282 281 281 281 280 279 277 276 277 278 279 279 279 278 279 280 281 283 283 283 284 284 281 276 272 272 267 266 266 266 265 266 267 269 269 270 271
288 289 289 290 289 287 286 286 285 284 283 281 278 276 275 275 277 278 278 279 279 279 280 282 283 283 283 283 281 278 278 273 273 273 271 270 269 269 269 271 272 272 272
290 289 290 290 290 289 289 289 288 287 285 283 281 278 276 274 274 276 278 279 279 279 280 280 281 281 282 281 280 279 281 277 274 274 274 273 272 272 272 273 273 274 275
289 289 290 290 290 291 290 289 288 287 287 285 283 280 278 277 274 275 278 279 280 281 280 279 279 280 280 280 279 280 278 276 276 275 275 275 274 274 274 273 273 274 275
288 288 288 290 291 291 291 289 288 287 287 286 284 282 279 278 276 275 275 276 278 278 278 278 277 277 278 278 279 281 279 279 278 277 276 275 275 275 275 274 273 274 274
286 287 287 289 290 290 289 289 288 288 288 288 287 285 282 279 277 275 275 275 276 276 276 278 277 276 277 277 278 279 280 279 278 277 277 276 276 277 278 277 274 274 273
288 288 288 288 289 290 289 287 286 286 287 288 288 287 284 281 280 276 275 275 276 276 274 276 275 276 277 277 277 279 280 279 278 278 278 278 277 277 278 279 277 275 273
288 286 287 288 289 288 288 287 286 286 286 286 287 287 286 283 280 278 276 277 277 277 276 274 274 276 277 277 278 279 279 279 278 278 279 278 277 278 278 278 279 277 275
287 286 287 287 290 288 287 286 286 286 286 286 287 286 285 284 283 281 279 279 278 276 276 274 273 273 274 275 277 278 279 279 278 279 279 279 278 279 279 279 280 278 277
290 290 288 289 290 290 288 285 285 285 285 286 286 288 285 283 283 283 282 281 280 278 277 276 274 274 273 274 274 275 277 279 279 279 279 278 278 278 280 281 281 280 278
292 290 290 290 290 290 289 288 287 286 287 289 289 289 287 285 284 283 283 283 282 281 280 279 277 275 273 274 274 275 276 278 279 279 278 277 277 279 280 281 281 281 279
293 292 292 290 290 291 292 291 290 289 289 289 291 290 290 289 286 285 284 282 282 282 281 279 278 277 277 276 276 275 276 277 277 278 278 278 278 279 279 279 280 280 279
293 293 292 290 289 290 292 292 292 291 289 289 289 289 290 291 289 287 285 285 283 283 281 280 278 277 277 277 277 276 276 277 276 277 278 278 278 279 280 279 277 278 278
290 290 290 291 291 290 290 291 291 291 290 290 290 290 290 290 289 287 286 286 285 284 282 280 279 278 279 278 278 277 276 277 275 275 276 278 278 279 280 279 277 276 276
288 289 290 292 292 292 291 291 290 290 289 289 289 290 291 289 287 287 287 287 287 284 283 281 280 279 279 280 278 278 278 277 277 276 275 276 278 279 279 279 279 277 276
286 288 290 291 291 290 290 290 290 290 290 291 291 290 290 289 287 286 287 287 287 287 286 283 281 281 280 279 279 280 280 279 279 278 277 276 277 277 277 279 279 279 278
285 288 290 291 291 291 290 290 290 290 291 292 292 292 291 289 287 286 286 286 287 287 287 286 284 282 281 280 279 279 279 280 279 278 278 277 276 277 276 277 278 278 279
283 286 288 289 290 291 291 291 291 291 292 292 292 291 292 291 288 287 287 286 287 287 287 286 286 284 284 281 280 281 281 281 279 278 278 278 278 278 277 276 276 277 278
282 284 285 287 289 291 291 292 292 293 293 293 292 292 292 292 290 288 287 287 287 287 287 286 286 286 284 283 283 282 281 281 279 279 280 280 280 279 277 276 276 276 277
281 282 284 285 287 290 291 292 292 293 293 292 291 292 292 292 290 289 288 288 287 287 287 287 287 285 284 283 284 284 283 282 281 279 280 281 281 279 277 276 277 277 276
281 281 284 284 285 287 290 291 292 292 291 291 290 291 292 292 292 291 289 288 287 287 288 290 288 286 285 285 284 284 283 282 282 281 281 281 282 282 280 278 277 278 277
281 282 285 284 285 287 289 291 292 291 291 291 291 291 292 292 292 291 289 288 287 286 287 288 288 287 286 285 285 284 283 283 283 282 282 282 282 282 281 280 279 277 277
280 281 284 285 285 286 288 290 290 290 289 290 290 291 291 291 292 291 289 288 287 286 287 287 287 286 286 285 285 284 283 283 282 282 283 283 283 282 281 281 280 278 277
Height
5853 5853 5853 5853 5853 5853 5853 5853 5853 5853 5853 5853 5853 5853 5853 5854 5854 5854 5854 5855 5855 5855 5856 5856 5856 5857 5857 5857 5857 5857 5858 5858 5859 5859 5860 5860 5861 5861 5862 5862 5862 5863 5863
5852 5852 5852 5852 5851 5851 5851 5851 5851 5851 5851 5851 5851 5851 5851 5851 5852 5852 5852 5852 5853 5853 5853 5853 5853 5853 5854 5853 5854 5854 5854 5854 5855 5855 5856 5857 5857 5857 5858 5858 5859 5859 5859
5850 5850 5850 5850 5849 5849 5849 5849 5849 5849 5848 5848 5849 5849 5849 5849 5849 5849 5849 5850 5850 5850 5850 5850 5850 5850 5850 5850 5850 5850 5850 5851 5851 5852 5852 5853 5853 5854 5854 5854 5855 5855 5855
5848 5848 5847 5847 5847 5846 5846 5846 5846 5846 5846 5845 5845 5845 5845 5846 5846 5846 5846 5846 5847 5847 5847 5847 5847 5846 5846 5846 5847 5847 5847 5847 5847 5848 5848 5849 5849 5850 5850 5850 5851 5851 5851
5845 5845 5845 5844 5844 5844 5843 5843 5842 5842 5842 5842 5842 5842 5842 5842 5842 5842 5843 5843 5843 5843 5843 5843 5843 5843 5843 5843 5843 5843 5843 5843 5843 5844 5844 5844 5845 5845 5846 5846 5846 5847 5847
5843 5842 5842 5842 5841 5841 5840 5840 5839 5838 5838 5838 5838 5838 5838 5838 5838 5838 5839 5839 5839 5840 5840 5840 5840 5840 5840 5840 5840 5840 5840 5839 5839 5839 5840 5840 5840 5841 5841 5842 5842 5842 5842
5840 5839 5839 5839 5838 5838 5837 5836 5835 5835 5834 5834 5834 5834 5834 5834 5834 5834 5835 5835 5835 5836 5836 5836 5836 5836 5836 5836 5836 5836 5836 5835 5835 5835 5835 5836 5836 5836 5837 5837 5837 5837 5837
5837 5836 5836 5835 5835 5834 5833 5832 5832 5831 5831 5830 5830 5830 5830 5831 5830 5830 5831 5831 5831 5832 5832 5832 5832 5832 5832 5832 5832 5832 5832 5832 5832 5832 5832 5832 5832 5832 5832 5832 5832 5832 5833
5833 5833 5832 5832 5831 5830 5829 5829 5828 5828 5827 5827 5826 5826 5826 5826 5826 5826 5826 5827 5827 5827 5827 5828 5828 5828 5828 5828 5828 5828 5828 5828 5828 5828 5827 5827 5827 5827 5827 5827 5827 5827 5828
5830 5829 5828 5828 5827 5826 5826 5825 5824 5824 5823 5823 5822 5822 5822 5822 5822 5822 5822 5822 5822 5823 5823 5823 5823 5824 5824 5824 5824 5823 5823 5823 5823 5823 5823 5823 5823 5823 5823 5822 5822 5822 5822
5826 5825 5824 5824 5823 5822 5822 5821 5820 5820 5819 5819 5818 5818 5817 5817 5817 5817 5817 5817 5818 5818 5818 5818 5818 5819 5819 5819 5819 5819 5819 5818 5818 5818 5818 5818 5818 5818 5817 5817 5817 5817 5817
5822 5821 5820 5820 5819 5818 5818 5817 5816 5816 5815 5815 5814 5814 5813 5813 5813 5813 5813 5813 5813 5813 5813 5813 5813 5813 5814 5814 5814 5814 5814 5813 5813 5813 5813 5813 5813 5812 5812 5812 5812 5812 5811
5817 5817 5816 5816 5815 5814 5813 5813 5812 5811 5811 5810 5810 5809 5809 5808 5808 5808 5808 5808 5808 5808 5808 5808 5808 5808 5808 5808 5808 5808 5808 5808 5808 5807 5807 5807 5807 5807 5807 5806 5806 5806 5806
5813 5813 5812 5811 5810 5810 5809 5809 5808 5807 5807 5806 5806 5805 5804 5804 5803 5803 5803 5803 5803 5803 5803 5802 5802 5802 5802 5803 5803 5803 5802 5802 5802 5801 5801 5801 5801 5801 5801 5801 5801 5801 5800
5809 5809 5808 5807 5807 5806 5805 5805 5804 5804 5803 5802 5802 5801 5800 5799 5799 5798 5798 5798 5798 5798 5797 5797 5796 5796 5796 5797 5797 5797 5797 5796 5796 5796 5795 5795 5795 5795 5795 5795 5795 5795 5795
5806 5805 5804 5803 5803 5802 5801 5801 5800 5799 5799 5798 5797 5796 5795 5795 5794 5793 5792 5792 5792 5792 5791 5791 5791 5791 5790 5791 5791 5791 5790 5790 5790 5789 5789 5789 5789 5789 5789 5789 5789 5788 5788
5802 5801 5800 5799 5799 5798 5797 5797 5796 5795 5794 5793 5792 5791 5790 5789 5788 5788 5787 5786 5786 5785 5785 5785 5784 5784 5784 5784 5784 5784 5784 5783 5783 5783 5783 5783 5783 5782 5782 5782 5782 5782 5782
5798 5797 5796 5795 5794 5794 5793 5792 5791 5790 5789 5788 5787 5786 5785 5784 5783 5782 5781 5780 5780 5779 5779 5779 5778 5778 5778 5777 5777 5777 5777 5777 5776 5776 5776 5776 5776 5776 5775 5775 5775 5775 5775
5794 5793 5792 5791 5790 5789 5788 5787 5786 5785 5783 5782 5781 5780 5779 5778 5777 5776 5775 5774 5773 5772 5772 5772 5771 5771 5771 5771 5771 5771 5770 5770 5769 5769 5769 5769 5769 5769 5769 5768 5768 5768 5768
5789 5788 5787 5786 5785 5784 5783 5782 5780 5779 5778 5776 5774 5773 5772 5771 5770 5769 5768 5768 5767 5766 5765 5765 5764 5764 5764 5764 5764 5764 5763 5762 5762 5762 5762 5761 5761 5761 5761 5761 5761 5761 5761
5784 5783 5782 5781 5780 5778 5777 5776 5774 5773 5771 5770 5768 5766 5765 5764 5763 5762 5762 5761 5760 5759 5758 5758 5757 5757 5757 5756 5756 5756 5756 5755 5755 5754 5754 5754 5754 5754 5754 5753 5753 5753 5753
5778 5777 5776 5775 5774 5772 5771 5769 5767 5766 5764 5763 5761 5760 5758 5757 5756 5755 5755 5754 5753 5752 5751 5751 5750 5750 5749 5749 5748 5748 5748 5748 5748 5747 5747 5746 5746 5746 5745 5745 5745 5745 5745
5772 5771 5770 5769 5768 5766 5765 5763 5761 5759 5757 5756 5755 5753 5752 5751 5749 5748 5747 5746 5746 5745 5744 5744 5743 5742 5742 5741 5741 5741 5740 5739 5740 5739 5739 5738 5737 5737 5737 5736 5736 5736 5736
5765 5764 5763 5763 5761 5760 5758 5756 5754 5752 5751 5749 5748 5747 5746 5744 5743 5742 5741 5739 5738 5738 5737 5736 5735 5735 5734 5733 5733 5733 5732 5732 5731 5730 5730 5730 5729 5729 5728 5727 5727 5727 5726
5758 5757 5756 5755 5755 5753 5752 5750 5748 5746 5744 5743 5742 5740 5739 5738 5736 5735 5734 5733 5731 5730 5729 5728 5727 5726 5725 5725 5724 5724 5724 5724 5723 5722 5721 5721 5721 5720 5719 5718 5717 5717 5716
5751 5750 5749 5748 5748 5746 5745 5743 5741 5739 5738 5736 5735 5734 5732 5730 5729 5727 5726 5725 5724 5722 5721 5720 5719 5718 5717 5717 5716 5715 5715 5715 5714 5714 5713 5712 5711 5711 5711 5709 5708 5707 5706